RH
96 95 94 92 93 90 91 91 90 99 98 100 98 99 99 99 100 99 98 97 92 92 87 87 97 100 99 94 91 88 86 83 79 76 88 88 86 84
78 99 100 99 99 100 100 100 96 91 98 99 100 100 99 100 100 98 97 95 93 92 90 89 90 94 92 91 88 84 82 85 86 89 89 86 86 90
86 98 100 100 100 100 100 100 100 99 97 100 100 100 100 100 97 95 94 91 91 89 88 89 90 90 87 87 87 85 85 86 85 83 84 86 89 87
100 100 98 100 100 100 100 100 99 100 97 99 100 100 100 100 97 95 89 91 88 90 90 88 94 98 90 85 87 85 82 82 84 86 83 85 84 85
100 99 93 100 100 100 100 100 97 95 95 95 100 100 99 100 100 97 92 88 84 88 87 82 82 81 80 76 73 70 63 54 45 38 40 57 67 86
90 99 99 99 100 100 99 97 95 96 96 92 93 97 94 100 98 93 88 84 72 66 61 57 50 47 44 43 42 40 38 36 36 47 56 58 59 69
87 94 96 97 98 98 97 95 94 93 97 95 93 94 92 98 96 90 85 78 64 60 52 47 47 42 41 52 47 45 39 38 44 67 78 76 79 87
94 94 94 96 98 98 97 95 92 90 96 97 92 91 90 90 92 89 80 70 64 59 50 44 49 50 51 55 56 58 55 53 57 67 66 68 77 86
92 91 94 96 97 96 94 92 92 92 91 93 90 91 92 89 89 84 72 62 54 57 52 50 57 56 60 61 70 63 61 57 58 54 72 91 75 71
98 94 94 93 94 96 94 91 88 87 88 89 87 86 85 81 78 73 65 58 60 57 51 65 67 64 65 66 73 68 61 65 77 86 98 82 77 79
100 100 100 98 93 90 87 82 79 75 69 75 83 81 74 67 64 59 55 50 72 67 63 60 73 71 69 66 73 70 66 76 94 97 91 98 94 90
100 99 99 98 93 87 67 58 61 71 65 68 72 68 58 53 49 48 43 48 69 76 69 71 76 65 81 80 76 74 71 72 87 92 96 97 98 98
96 90 82 87 83 86 75 57 50 56 68 68 69 71 72 62 58 60 59 62 67 77 75 76 75 70 73 81 83 79 75 75 75 74 72 71 72 87
84 81 77 84 82 82 83 57 61 59 59 53 62 61 61 62 65 63 65 69 71 65 71 76 74 78 80 84 77 84 86 82 72 75 76 76 81 87
61 61 59 76 93 83 72 52 70 78 64 59 58 63 62 62 70 69 68 66 64 68 75 84 86 84 94 91 87 88 90 83 81 76 84 82 80 85
64 56 60 66 83 79 75 70 72 77 63 61 56 58 66 77 79 82 82 77 81 88 88 92 100 100 97 91 90 88 88 93 87 90 86 79 76 84
68 56 68 80 89 81 73 77 78 78 71 63 62 64 71 77 83 89 88 85 88 93 95 96 96 97 95 94 95 94 95 100 97 83 89 89 78 78
79 61 68 72 76 79 80 68 75 77 84 66 62 62 68 76 84 90 83 87 91 95 94 92 92 93 94 87 90 98 100 100 93 93 95 96 82 63
83 77 71 73 80 80 76 72 64 60 66 83 77 67 67 74 87 89 85 91 92 90 90 89 91 91 95 94 76 96 98 96 94 85 77 79 79 56
92 92 86 84 73 61 59 55 48 56 56 60 78 80 70 70 85 90 89 93 93 88 90 91 89 87 92 91 74 72 86 88 85 89 81 70 73 67
93 99 96 91 84 74 61 49 43 43 46 53 62 73 67 67 75 79 82 89 95 92 91 86 67 74 83 89 100 94 77 76 80 86 84 95 96 94
86 80 83 83 80 74 69 64 54 47 45 43 47 49 51 58 68 77 83 89 96 98 84 68 75 87 91 96 98 96 90 84 76 80 85 96 96 96
89 76 73 66 59 58 58 56 57 56 52 51 48 46 48 54 56 64 74 76 81 83 84 85 86 89 91 89 92 94 97 91 86 86 75 72 72 88
Wind_Speed
24 23 23 23 19 22 22 21 15 4 6 12 9 13 10 8 6 6 4 6 8 6 6 2 4 4 6 6 6 5 5 4 3 0 1 1 1 1
20 19 18 19 18 20 20 19 22 17 3 11 13 11 10 9 10 6 5 7 6 6 5 5 5 3 4 5 4 4 4 5 4 3 3 2 2 1
16 15 17 16 16 16 16 18 17 16 7 5 10 11 13 12 9 6 3 7 7 6 5 5 7 4 3 4 5 5 6 6 5 4 4 3 3 1
13 12 14 13 14 14 14 14 13 13 8 8 11 12 11 12 9 7 6 8 7 5 5 5 4 6 5 5 6 5 5 5 5 5 5 6 5 1
13 13 15 15 14 14 15 14 11 10 9 9 8 12 8 14 13 10 9 8 7 6 5 5 4 4 4 4 4 5 5 4 4 5 6 6 4 2
12 14 13 13 13 12 12 12 11 11 10 9 9 11 11 15 15 15 13 10 8 8 7 6 5 6 5 5 6 6 6 6 5 4 4 4 4 3
12 12 13 12 12 12 12 12 13 12 11 14 10 8 10 13 18 15 13 12 10 9 7 7 7 5 6 5 4 4 4 5 5 5 5 4 4 4
12 13 12 9 10 9 10 11 12 14 15 17 14 11 13 17 19 17 15 10 5 10 7 7 8 6 6 5 4 3 3 4 6 6 6 5 5 5
12 12 10 9 7 7 8 8 10 11 12 16 18 17 16 17 20 19 18 15 7 8 7 7 8 7 8 7 5 3 4 6 8 9 7 6 6 6
11 11 10 10 10 10 10 9 8 9 10 12 11 10 12 13 15 16 17 13 9 9 7 6 9 9 8 7 7 5 4 3 3 6 7 6 6 6
10 10 10 9 8 9 9 10 8 6 6 7 8 10 11 12 14 13 16 17 5 7 8 6 9 8 8 8 9 7 4 2 4 6 4 4 6 7
10 9 9 9 9 8 9 9 9 9 10 11 11 12 11 11 12 11 14 19 7 5 10 7 8 6 4 7 8 8 6 7 8 8 7 7 6 9
10 10 9 9 10 9 9 11 9 10 9 11 12 11 11 10 10 10 12 14 11 4 10 9 8 6 3 4 8 8 7 8 8 9 10 10 11 10
12 11 10 9 9 10 9 9 8 9 12 12 12 12 12 11 10 9 8 9 9 6 9 9 5 7 6 3 3 6 9 9 9 8 7 6 6 8
12 11 10 11 9 9 9 8 10 15 14 14 15 15 13 11 11 9 7 6 6 7 8 9 9 9 9 5 3 4 6 3 10 7 5 9 11 8
11 10 11 11 13 11 9 10 12 13 15 15 15 13 12 14 13 9 7 6 5 6 6 6 5 6 6 8 10 15 14 10 5 6 12 12 9 9
14 12 13 14 15 14 13 14 14 14 15 14 16 15 15 15 14 11 9 10 7 8 7 5 6 6 8 9 12 14 13 13 13 9 12 14 12 12
15 16 17 18 18 19 19 18 17 17 17 17 16 17 18 17 16 15 14 13 12 11 10 8 7 6 6 9 17 19 13 12 10 6 10 15 22 19
20 20 20 20 22 22 21 21 20 21 19 20 19 19 18 17 18 19 18 16 15 13 13 11 10 9 7 3 4 9 13 12 9 10 15 18 25 26
24 21 23 22 22 22 22 22 22 21 21 22 23 23 21 21 23 22 21 22 21 17 16 14 14 14 16 7 2 5 5 9 16 18 18 19 20 22
24 24 27 26 25 24 23 22 21 22 22 23 25 25 24 25 27 25 23 23 22 22 21 20 16 9 11 12 9 11 14 13 14 16 17 17 17 10
25 29 30 29 29 28 25 24 24 23 24 25 27 28 27 28 28 27 27 26 25 23 24 17 12 13 17 18 17 16 19 19 15 15 15 17 15 6
28 31 32 31 30 29 28 27 27 28 29 29 30 29 29 30 29 28 28 28 27 25 25 22 19 18 20 21 20 20 18 20 20 19 18 11 15 21
Wind_Direction
260 265 269 272 264 257 248 237 217 186 207 211 198 215 227 223 189 177 184 208 229 225 240 248 203 176 158 160 167 176 181 193 207 195 152 129 106 78
269 269 263 261 258 250 238 238 239 227 182 199 206 202 205 200 179 183 247 217 222 224 232 223 219 183 179 179 178 179 176 157 148 147 159 143 143 114
267 265 262 256 253 248 240 233 232 234 180 169 192 194 191 193 186 179 230 211 215 214 214 248 239 211 182 183 170 180 185 174 179 198 190 158 159 157
279 270 264 258 255 240 236 229 227 220 206 168 182 181 194 195 192 184 198 216 216 220 212 239 172 152 171 191 172 188 187 186 180 182 191 196 208 213
277 271 269 256 245 236 230 224 220 216 213 183 168 185 190 190 185 184 193 205 201 205 201 202 186 197 183 189 196 205 201 210 222 229 223 217 215 192
267 267 259 253 248 238 231 231 226 226 211 195 182 180 189 194 196 185 181 199 197 197 204 202 208 218 217 222 231 234 232 231 225 215 213 205 197 188
256 258 261 253 251 241 235 232 237 229 204 197 183 174 179 176 193 190 190 193 200 204 220 214 218 220 220 214 225 223 212 209 207 203 208 211 215 220
265 263 257 254 250 248 244 237 234 224 207 196 195 196 198 198 194 190 183 178 206 219 214 206 202 216 198 191 183 185 209 218 215 218 230 241 240 231
267 263 262 246 228 245 243 231 213 214 219 211 206 214 214 212 198 187 189 192 188 168 187 190 191 191 186 178 190 223 259 262 245 234 234 233 234 240
255 252 249 249 247 232 230 213 205 201 200 207 211 216 207 200 208 202 195 189 181 176 190 185 188 190 186 194 205 240 271 281 274 195 194 226 246 251
245 239 239 231 218 213 216 200 185 176 172 188 188 188 191 186 200 196 183 172 169 184 187 196 191 196 208 211 211 220 228 194 157 173 216 258 277 279
236 232 231 229 204 213 202 207 178 173 164 154 149 158 169 177 190 195 201 186 159 165 193 204 186 189 171 190 198 211 207 209 202 207 222 242 257 269
239 237 226 222 220 216 228 214 211 197 180 177 170 170 172 175 181 180 188 204 194 152 179 194 188 180 172 167 209 226 231 234 238 246 254 265 270 275
244 238 232 221 219 211 223 216 206 204 193 185 180 175 183 180 179 173 181 194 205 220 196 207 205 198 189 183 200 219 230 263 270 249 260 266 263 275
255 251 243 224 227 225 224 217 206 209 200 197 197 196 197 186 181 179 185 193 202 209 221 237 241 236 216 205 188 242 314 210 266 258 206 294 296 293
251 249 240 230 230 237 230 211 213 214 215 215 213 207 197 196 197 198 198 199 202 210 228 235 246 226 228 243 258 265 269 277 225 237 291 290 283 270
247 238 223 221 226 229 230 224 220 218 218 216 215 210 204 202 208 215 221 207 215 183 188 209 229 250 266 268 267 266 276 270 267 282 292 296 288 287
229 232 229 227 232 235 233 232 229 227 225 221 220 221 216 214 217 220 217 215 218 215 220 221 223 251 282 274 252 261 260 261 272 272 288 299 302 302
228 235 235 237 238 238 240 241 237 234 232 229 229 228 228 226 223 222 220 219 226 229 229 231 226 224 235 247 284 237 259 261 282 286 296 296 297 301
233 231 243 248 249 248 248 246 246 245 241 236 234 234 235 232 227 228 226 227 230 235 234 230 234 233 229 221 229 260 225 250 280 289 296 300 297 300
233 240 250 255 258 258 258 257 254 250 245 240 238 238 238 235 234 237 239 235 235 237 235 237 244 252 257 257 259 260 270 264 272 279 291 296 301 292
240 247 252 256 260 263 263 260 255 250 246 243 241 241 240 238 237 239 240 238 230 237 244 251 242 236 237 240 249 258 272 285 284 281 269 261 261 284
245 251 257 261 263 264 264 261 256 252 248 245 243 241 240 239 240 241 245 243 243 242 245 245 242 241 244 248 255 264 271 284 294 298 295 279 267 263